TimeCET,TemperatureF,Dew PointF,Humidity,Sea Level PressureIn,VisibilityMPH,Wind Direction,Wind SpeedMPH,Gust SpeedMPH,PrecipitationIn,Events,Conditions,WindDirDegrees,DateUTC
1:00 AM,18,18,99,,0,West,16.1,,,Fog,Heavy Fog,280,2013-02-25 00:00:00
1:55 AM,19.4,17.6,93,29.53,0.0,West,19.6,-,N/A,Fog,Light Freezing Fog,280,2013-02-25 00:55:00
2:55 AM,17.6,17.6,100,29.53,0.0,West,17.3,-,N/A,Fog,Light Freezing Fog,280,2013-02-25 01:55:00
4:55 AM,19.4,17.6,93,29.56,0.0,West,13.8,-,N/A,Fog,Light Freezing Fog,280,2013-02-25 03:55:00
5:55 AM,19.4,17.6,93,29.56,0.0,West,20.7,-,N/A,Fog,Light Freezing Fog,280,2013-02-25 04:55:00
6:55 AM,19.4,17.6,93,29.56,0.0,West,23.0,-,N/A,Fog,Light Freezing Fog,280,2013-02-25 05:55:00
7:00 AM,19,18,95,,0,West,23.0,,,Fog,Heavy Fog,280,2013-02-25 06:00:00
7:55 AM,17.6,17.6,100,29.59,0.0,West,20.7,-,N/A,Fog,Light Freezing Fog,270,2013-02-25 06:55:00
8:55 AM,19.4,19.4,100,29.62,0.0,West,25.3,-,N/A,Fog,Light Freezing Fog,280,2013-02-25 07:55:00
9:55 AM,19.4,19.4,100,29.65,0.0,West,23.0,-,N/A,Fog,Light Freezing Fog,270,2013-02-25 08:55:00
10:55 AM,21.2,21.2,100,29.65,-9999.0,West,25.3,-,N/A,Fog,Light Freezing Fog,280,2013-02-25 09:55:00
11:55 AM,21.2,19.4,93,29.68,-9999.0,West,23.0,-,N/A,Fog,Light Freezing Fog,280,2013-02-25 10:55:00
12:55 PM,19.4,19.4,100,29.68,-9999.0,West,28.8,-,N/A,Fog,Light Freezing Fog,260,2013-02-25 11:55:00
1:00 PM,20,19,95,,0,West,28.8,,,Snow,Light Snow,260,2013-02-25 12:00:00
1:55 PM,21.2,19.4,93,29.68,0.0,West,27.6,-,N/A,Fog,Light Freezing Fog,260,2013-02-25 12:55:00
2:55 PM,23.0,21.2,93,29.71,0.0,West,26.5,-,N/A,Fog,Light Freezing Fog,260,2013-02-25 13:55:00
3:55 PM,23.0,21.2,93,29.74,0.0,West,15.0,-,N/A,Fog,Light Freezing Fog,260,2013-02-25 14:55:00
4:55 PM,21.2,21.2,100,29.74,-9999.0,West,27.6,-,N/A,Fog,Light Freezing Fog,260,2013-02-25 15:55:00
5:55 PM,21.2,19.4,93,29.74,-9999.0,West,27.6,-,N/A,Fog,Light Freezing Fog,260,2013-02-25 16:55:00
6:55 PM,21.2,19.4,93,29.77,0.0,West,26.5,-,N/A,Fog,Light Freezing Fog,260,2013-02-25 17:55:00
7:00 PM,21,20,94,,0,West,26.5,,,Fog,Heavy Fog,260,2013-02-25 18:00:00
7:55 PM,21.2,21.2,100,29.77,0.0,West,26.5,-,N/A,Fog,Light Freezing Fog,260,2013-02-25 18:55:00
8:55 PM,23.0,21.2,93,29.80,0.0,West,34.5,-,N/A,Fog,Light Freezing Fog,260,2013-02-25 19:55:00
9:55 PM,23.0,21.2,93,29.83,0.0,West,32.2,-,N/A,Fog,Light Freezing Fog,270,2013-02-25 20:55:00
10:55 PM,23.0,21.2,93,29.83,0.0,West,29.9,-,N/A,Fog,Light Freezing Fog,280,2013-02-25 21:55:00
11:55 PM,23.0,21.2,93,29.83,0.0,West,32.2,-,N/A,Fog,Light Freezing Fog,270,2013-02-25 22:55:00